Date String (YYYY-MM-DD hh:mm:ss) UTC,Instrument flags,absolute air pressure of the measurement (hPa),sample flow rate (lpm),inlet stack bypass flow (lpm),air temperature of the measurement (°C),ambient temperature measured by the external sensor (°C),aerosol sample conditioner tube jacket temperature (°C),OPC LED temperature (°C),internal box temperature (°C),relative humidity of the measurement (%),span deviation,mass concentration of particles derived from Lorenz-Mie calculation of OPC scattering (μg/m³),mass concentration of particles derived from Lorenz-Mie calculation of OPC scattering (μg/m³),mass concentration of particles derived from Lorenz-Mie calculation of OPC scattering (μg/m³)
DateTimeUTC,F1_M11,P_M11,Q1_M11,Q2_M11,T1_M11,T2_M11,T3_M11,T4_M11,T5_M11,U1_M11,ZSPAN_M11,X2_M11,X0_M11,X1_M11
2024-01-07 19:00:00,SystemResetWarning,0813.6,5.00,000.00,018.9,018.4,000.0,027.2,020.3,8.7,0000.0,0002.77,0006.66,0002.14
2024-01-07 19:01:00,SystemResetWarning,0813.6,5.00,000.00,018.9,018.4,000.0,027.2,020.3,8.6,0000.0,0002.71,0006.52,0002.13
2024-01-07 19:02:00,SystemResetWarning,0813.5,5.01,000.00,018.9,018.4,000.0,027.2,020.3,8.6,0000.0,0002.69,0006.56,0002.12
2024-01-07 19:03:00,SystemResetWarning,0813.5,5.00,000.00,018.9,018.4,000.0,027.2,020.3,8.6,0000.0,0002.63,0006.42,0002.09
2024-01-07 19:04:00,SystemResetWarning,0813.5,5.00,000.00,019.0,018.4,000.0,027.2,020.4,8.6,0000.0,0002.59,0005.54,0002.07
2024-01-07 19:05:00,SystemResetWarning,0813.5,5.00,000.00,019.0,018.4,000.0,027.2,020.4,8.5,0000.0,0002.59,0005.09,0002.04
2024-01-07 19:06:00,SystemResetWarning,0813.4,5.00,000.00,019.0,018.5,000.0,027.2,020.4,8.5,0000.0,0002.54,0005.29,0002.02
2024-01-07 19:07:00,SystemResetWarning,0813.4,5.00,000.00,019.0,018.5,000.0,027.2,020.4,8.5,0000.0,0002.52,0006.62,0001.99
2024-01-07 19:08:00,SystemResetWarning,0813.4,4.99,000.00,019.0,018.5,000.0,027.3,020.5,8.4,0000.0,0002.49,0006.68,0001.97
2024-01-07 19:09:00,SystemResetWarning,0813.4,4.99,000.00,019.0,018.5,000.0,027.3,020.5,8.5,0000.0,0002.49,0006.73,0001.96
2024-01-07 19:10:00,SystemResetWarning,0813.4,4.99,000.00,019.0,018.6,000.0,027.3,020.5,8.5,0000.0,0002.52,0007.00,0001.94
2024-01-07 19:11:00,SystemResetWarning,0813.4,5.01,000.00,019.1,018.6,000.0,027.3,020.5,8.5,0000.0,0002.55,0006.89,0001.93
2024-01-07 19:12:00,SystemResetWarning,0813.4,5.01,000.00,019.1,018.6,000.0,027.3,020.6,8.5,0000.0,0002.52,0006.88,0001.90
2024-01-07 19:13:00,SystemResetWarning,0813.3,5.01,000.00,019.1,018.6,000.0,027.3,020.6,8.5,0000.0,0002.51,0007.06,0001.87
2024-01-07 19:14:00,SystemResetWarning,0813.3,4.99,000.00,019.1,018.6,000.0,027.3,020.6,8.5,0000.0,0002.49,0007.41,0001.86
2024-01-07 19:15:00,SystemResetWarning,0813.3,4.99,000.00,019.2,018.7,000.0,027.4,020.6,8.5,0000.0,0002.51,0007.46,0001.84
2024-01-07 19:16:00,SystemResetWarning,0813.3,4.99,000.00,019.2,018.7,000.0,027.4,020.6,8.4,0000.0,0002.53,0007.47,0001.83
2024-01-07 19:17:00,SystemResetWarning,0813.3,5.00,000.00,019.2,018.7,000.0,027.4,020.7,8.4,0000.0,0002.54,0007.30,0001.84
2024-01-07 19:18:00,SystemResetWarning,0813.2,5.00,000.00,019.2,018.7,000.0,027.4,020.7,8.3,0000.0,0002.53,0005.98,0001.85
2024-01-07 19:19:00,SystemResetWarning,0813.2,5.00,000.00,019.2,018.8,000.0,027.4,020.7,8.2,0000.0,0002.55,0005.86,0001.85
2024-01-07 19:20:00,SystemResetWarning,0813.2,5.01,000.00,019.2,018.8,000.0,027.4,020.7,8.2,0000.0,0002.54,0005.76,0001.84
2024-01-07 19:21:00,SystemResetWarning,0813.2,5.01,000.00,019.3,018.8,000.0,027.5,020.7,8.1,0000.0,0002.55,0005.27,0001.84
2024-01-07 19:22:00,SystemResetWarning,0813.2,5.00,000.00,019.3,018.8,000.0,027.5,020.7,8.1,0000.0,0002.52,0005.01,0001.84
2024-01-07 19:23:00,SystemResetWarning,0813.2,4.99,000.00,019.3,018.8,000.0,027.5,020.8,8.0,0000.0,0002.54,0005.15,0001.84
2024-01-07 19:24:00,SystemResetWarning,0813.2,4.99,000.00,019.3,018.8,000.0,027.5,020.8,8.0,0000.0,0002.53,0005.05,0001.85
2024-01-07 19:25:00,SystemResetWarning,0813.2,5.00,000.00,019.3,018.9,000.0,027.5,020.8,7.9,0000.0,0002.54,0004.93,0001.85
2024-01-07 19:26:00,SystemResetWarning,0813.2,5.00,000.00,019.4,018.9,000.0,027.5,020.8,7.9,0000.0,0002.59,0005.81,0001.86
2024-01-07 19:27:00,SystemResetWarning,0813.1,5.00,000.00,019.4,018.9,000.0,027.6,020.9,7.9,0000.0,0002.58,0006.51,0001.88
2024-01-07 19:28:00,SystemResetWarning,0813.0,5.00,000.00,019.4,018.9,000.0,027.6,020.8,7.8,0000.0,0002.59,0006.51,0001.88
2024-01-07 19:29:00,SystemResetWarning,0813.0,5.00,000.00,019.4,018.9,000.0,027.6,020.9,7.8,0000.0,0002.61,0006.48,0001.88
2024-01-07 19:30:00,SystemResetWarning,0813.0,5.00,000.00,019.4,018.9,000.0,027.6,020.9,7.8,0000.0,0002.58,0006.32,0001.89
2024-01-07 19:31:00,SystemResetWarning,0813.0,5.00,000.00,019.4,019.0,000.0,027.6,020.9,7.8,0000.0,0002.58,0006.39,0001.88
2024-01-07 19:32:00,SystemResetWarning,0813.0,5.00,000.00,019.5,019.0,000.0,027.7,020.9,7.9,0000.0,0002.53,0006.75,0001.87
2024-01-07 19:33:00,SystemResetWarning,0813.0,5.00,000.00,019.5,019.0,000.0,027.7,020.9,7.9,0000.0,0002.51,0006.84,0001.86
2024-01-07 19:34:00,SystemResetWarning,0813.0,5.00,000.00,019.5,019.0,000.0,027.7,021.0,7.8,0000.0,0002.49,0007.19,0001.85
2024-01-07 19:35:00,SystemResetWarning,0813.0,5.00,000.00,019.5,019.0,000.0,027.7,020.9,7.8,0000.0,0002.46,0007.28,0001.83
2024-01-07 19:36:00,SystemResetWarning,0812.9,5.00,000.00,019.5,019.0,000.0,027.7,021.0,7.8,0000.0,0002.47,0007.33,0001.81
2024-01-07 19:37:00,SystemResetWarning,0812.9,5.00,000.00,019.5,019.1,000.0,027.7,021.0,7.9,0000.0,0002.39,0006.39,0001.78
2024-01-07 19:38:00,SystemResetWarning,0812.9,5.00,000.00,019.6,019.1,000.0,027.8,020.9,7.9,0000.0,0002.33,0005.49,0001.74
2024-01-07 19:39:00,SystemResetWarning,0812.8,5.00,000.00,019.6,019.1,000.0,027.8,021.0,8.0,0000.0,0002.33,0005.40,0001.71
2024-01-07 19:40:00,SystemResetWarning,0812.8,5.00,000.00,019.6,019.1,000.0,027.8,021.0,8.0,0000.0,0002.29,0005.36,0001.68
2024-01-07 19:41:00,SystemResetWarning,0812.8,5.01,000.00,019.6,019.1,000.0,027.8,021.0,8.0,0000.0,0002.27,0005.38,0001.64
2024-01-07 19:42:00,SystemResetWarning,0812.8,5.00,000.00,019.6,019.1,000.0,027.8,021.1,8.0,0000.0,0002.28,0005.37,0001.61
2024-01-07 19:43:00,SystemResetWarning,0812.8,5.01,000.00,019.6,019.2,000.0,027.8,021.1,8.0,0000.0,0002.27,0005.06,0001.59
2024-01-07 19:44:00,SystemResetWarning,0812.8,5.00,000.00,019.7,019.2,000.0,027.8,021.1,8.1,0000.0,0002.27,0004.82,0001.57
2024-01-07 19:45:00,SystemResetWarning,0812.8,4.99,000.00,019.7,019.2,000.0,027.9,021.1,8.1,0000.0,0002.26,0005.31,0001.56
2024-01-07 19:46:00,SystemResetWarning,0812.8,4.99,000.00,019.7,019.2,000.0,027.9,021.1,8.1,0000.0,0002.30,0004.94,0001.56
2024-01-07 19:47:00,SystemResetWarning,0812.8,4.99,000.00,019.7,019.2,000.0,027.9,021.1,8.2,0000.0,0002.28,0004.82,0001.55
2024-01-07 19:48:00,SystemResetWarning,0812.8,5.00,000.00,019.7,019.2,000.0,027.9,021.1,8.2,0000.0,0002.30,0004.85,0001.56
2024-01-07 19:49:00,SystemResetWarning,0812.8,5.01,000.00,019.7,019.2,000.0,027.9,021.1,8.2,0000.0,0002.31,0004.87,0001.57
2024-01-07 19:50:00,SystemResetWarning,0812.8,5.01,000.00,019.7,019.3,000.0,027.9,021.2,8.2,0000.0,0002.29,0004.97,0001.56
2024-01-07 19:51:00,SystemResetWarning,0812.8,5.00,000.00,019.8,019.3,000.0,028.0,021.2,8.2,0000.0,0002.26,0004.94,0001.58
2024-01-07 19:52:00,SystemResetWarning,0812.8,5.00,000.00,019.8,019.3,000.0,028.0,021.2,8.2,0000.0,0002.28,0004.90,0001.61
2024-01-07 19:53:00,SystemResetWarning,0812.8,4.99,000.00,019.8,019.3,000.0,028.0,021.2,8.2,0000.0,0002.25,0004.82,0001.64
2024-01-07 19:54:00,SystemResetWarning,0812.8,5.00,000.00,019.8,019.3,000.0,028.0,021.2,8.2,0000.0,0002.26,0005.44,0001.67
2024-01-07 19:55:00,SystemResetWarning,0812.9,5.00,000.00,019.8,019.3,000.0,028.0,021.3,8.1,0000.0,0002.29,0005.53,0001.69
2024-01-07 19:56:00,SystemResetWarning,0812.9,5.00,000.00,019.8,019.3,000.0,028.0,021.3,8.1,0000.0,0002.31,0004.61,0001.71
2024-01-07 19:57:00,SystemResetWarning,0812.9,5.00,000.00,019.9,019.3,000.0,028.1,021.3,8.0,0000.0,0002.31,0004.59,0001.74
2024-01-07 19:58:00,SystemResetWarning,0812.9,5.00,000.00,019.9,019.4,000.0,028.1,021.3,8.0,0000.0,0002.34,0004.48,0001.77
2024-01-07 19:59:00,SystemResetWarning,0812.8,5.00,000.00,019.9,019.4,000.0,028.1,021.3,7.9,0000.0,0002.37,0004.59,0001.80
